Home   Weather   Rastatt   Past weeks

Flag for Germany Past Weather in Rastatt, Baden-Württemberg, Germany — Yesterday and Last 2 Weeks

54 °F

Passing clouds.

Feels Like: 54 °F
Forecast: 42 / 56 °F
Wind: 1 mph from North

Location: Karlsruhe - Baden Wurttemberg

Current Time: Oct 25, 2016 at 9:10:09 PM

Latest Report: Oct 25, 2016 at 8:20 PM

Visibility: N/A

Pressure: 30.27 "Hg

Humidity: 100%

Dew Point: 54 °F

Location of RastattLocation

Past Weather in Rastatt — Graph


Rastatt Temperature Yesterday

Maximum temperature yesterday: 61 °F (at 2:50 PM)
Minimum temperature yesterday: 48 °F (at 4:50 AM)
Average temperature yesterday: 54 °F

High & Low Weather Summary for the Past Weeks

High63 °F (Oct 15, 4:20 PM)100% (Oct 11, 5:20 AM)30.27 "Hg (Oct 11, 5:20 AM)
Low32 °F (Oct 23, 4:50 AM)51% (Oct 12, 4:20 PM)29.62 "Hg (Oct 14, 6:50 PM)
Average49 °F88%30.01 "Hg
* Reported Oct 10 7:20 PM — Oct 25 7:50 PM, Rastatt, Weather by CustomWeather, © 2016

Note: Actual official high and low records may vary slightly from our data, if they occured in-between our weather recording intervals... More about our weather records


Rastatt Weather History for the Previous 24 Hours

Scroll right to see more
Time TempWeatherWind HumidityBarometerVisibility
7:50 PM
Tue, Oct 25
54 °FClear.2 mph100%30.27 "Hg10 mi
7:20 PM54 °FPartly cloudy.2 mph100%30.24 "HgN/A
6:50 PM55 °FPassing clouds.3 mph94%30.24 "HgN/A
6:20 PM55 °FPassing clouds.No wind94%30.24 "HgN/A
5:50 PM55 °FPartly sunny.1 mph88%30.21 "HgN/A
5:20 PM55 °FSunny.3 mph88%30.21 "Hg10 mi
4:50 PM57 °FSunny.3 mph88%30.21 "Hg10 mi
4:20 PM57 °FPartly sunny.5 mph88%30.21 "HgN/A
3:50 PM57 °FBroken clouds.5 mph88%30.21 "HgN/A
3:20 PM57 °FBroken clouds.3 mph88%30.18 "HgN/A
2:50 PM59 °FBroken clouds.3 mph77%30.21 "HgN/A
2:20 PM59 °FPartly sunny.2 mph82%30.18 "HgN/A
1:50 PM59 °FPartly sunny.3 mph77%30.18 "HgN/A
1:20 PM59 °FPartly sunny.5 mph82%30.18 "HgN/A
12:50 PM57 °FPartly sunny.5 mph82%30.21 "HgN/A
12:20 PM57 °FPartly sunny.6 mph88%30.21 "HgN/A
11:50 AM57 °FPartly sunny.3 mph88%30.21 "HgN/A
11:20 AM57 °FPartly sunny.2 mph88%30.21 "HgN/A
10:50 AM57 °FPartly sunny.3 mph88%30.21 "HgN/A
10:20 AM55 °FPartly sunny.1 mph94%30.18 "HgN/A
9:50 AM55 °FScattered clouds.3 mph100%30.18 "HgN/A
9:20 AM55 °FPartly sunny.No wind100%30.18 "HgN/A
8:50 AM55 °FPartly sunny.5 mph94%30.18 "HgN/A
8:20 AM55 °FScattered showers. Partly sunny.3 mph94%30.15 "Hg5 mi
7:50 AM55 °FScattered showers. Passing clouds.6 mph100%30.12 "Hg4 mi
7:20 AM55 °FScattered showers. Partly cloudy.6 mph100%30.12 "HgN/A
6:50 AM55 °FScattered showers. Passing clouds.6 mph100%30.12 "HgN/A
6:20 AM55 °FLight rain. Passing clouds.5 mph100%30.09 "Hg4 mi
5:50 AM57 °FRain. Fog.7 mph100%30.07 "Hg3 mi
5:20 AM57 °FRain. Partly cloudy.9 mph100%30.07 "Hg2 mi
4:50 AM57 °FRain. Partly cloudy.12 mph100%30.04 "Hg4 mi
10:20 PM
Mon, Oct 24
55 °FRain. Fog.3 mph100%29.95 "Hg2 mi
9:50 PM55 °FLight rain. Passing clouds.3 mph100%29.95 "Hg4 mi
9:20 PM55 °FLight rain. Passing clouds.5 mph100%29.95 "Hg4 mi
Weather by CustomWeather, © 2016

See weather overviewHow to use our weather pages